Вернуться в каталог

STARLINK-34301

АктивенСвязьVLEO
NORAD 64349·PAYLOAD·🇺🇸 United States

Запущен Jun 13, 2025 с Vandenberg Space Force Base

Loading…

Ближайшие Пролёты (ближайшие 24 часа)

TLE

СвежийSource: CelesTrak SupGP

Эпоха: Sep 14, 2026, 21:32 UTC

1 64349C 25126F   26257.89770833  .00073362  00000+0  25545-2 0  2579
2 64349  70.0000 275.8878 0003565 270.6444   1.5024 15.29509750    12

Отслеживайте STARLINK-34301 в реальном времени с AllMySat

Download on the App Store